Temperature
15 14 15 14 15 14 14 15 14 14 14 14 14 14 14 14 14 14 14 14 14 14 14 13 13 13 13 13 13 13 13 13 12 12 12 12 12 12 12 12 12 12 11
14 14 14 14 14 14 14 14 14 14 14 14 14 14 14 14 13 13 13 13 13 13 13 13 13 13 13 12 12 12 12 12 12 12 12 12 12 12 12 12 11 11 11
14 14 14 14 14 14 14 14 14 14 14 14 13 13 13 13 13 13 13 13 13 13 13 13 13 12 12 12 12 12 11 11 11 11 11 11 11 11 11 11 11 11 11
14 14 14 14 14 14 14 14 14 13 13 13 13 13 13 13 13 13 13 13 12 12 12 12 12 12 12 12 12 11 11 11 11 11 11 11 11 10 10 11 11 11 10
14 14 14 14 14 14 14 13 13 13 13 13 13 13 13 13 13 13 13 13 12 12 12 12 12 12 12 11 11 11 11 11 11 11 10 10 10 10 10 10 10 10 10
14 14 14 14 14 14 13 13 13 13 13 13 13 13 13 13 13 13 13 13 12 12 12 11 11 11 11 11 11 11 11 11 10 10 10 10 10 10 9 9 9 9 9
14 14 14 14 14 14 13 13 13 13 13 13 12 12 13 13 13 13 13 12 12 12 11 11 11 11 11 10 10 10 10 10 10 10 10 10 9 9 9 9 9 9 9
14 14 14 14 14 14 13 13 13 13 13 12 12 11 11 12 13 12 12 12 12 11 11 11 11 10 10 10 10 10 10 10 10 10 10 10 9 9 9 9 9 9 8
14 14 14 14 13 13 13 13 13 12 12 12 12 11 11 11 12 12 12 12 11 11 11 10 10 10 9 9 9 9 9 9 9 9 9 9 9 9 9 8 8 8 8
14 14 14 14 13 13 13 13 12 12 12 11 11 11 10 10 10 10 11 11 11 10 10 10 9 9 9 8 8 8 8 8 8 9 9 9 9 8 8 8 8 8 8
14 14 14 13 13 13 12 12 12 11 11 10 10 10 10 10 10 9 10 10 10 10 9 9 9 8 8 8 8 7 7 8 8 8 8 8 8 8 8 8 8 8 7
13 13 13 13 12 12 12 11 11 11 10 10 10 9 9 9 9 9 9 9 9 9 9 8 8 8 7 7 7 7 7 7 7 7 7 7 7 7 7 7 7 7 7
12 12 12 12 11 11 11 11 10 10 10 9 9 9 9 9 8 8 8 8 8 8 8 8 7 7 7 7 6 6 6 6 6 6 6 6 7 7 7 7 7 7 6
12 11 11 11 11 10 10 10 9 9 9 9 8 8 8 8 8 8 8 7 7 7 7 7 7 6 6 6 6 5 5 5 5 6 6 6 6 6 6 6 6 6 6
11 11 10 10 10 9 9 9 8 8 8 8 8 8 7 7 7 7 7 7 6 6 6 6 6 6 5 5 5 5 5 5 5 5 5 5 5 5 5 5 5 5 5
10 10 10 9 9 8 8 8 8 8 7 7 7 7 7 7 7 7 6 6 6 5 5 5 5 5 5 4 4 4 4 4 4 4 4 4 4 4 4 4 4 4 4
9 9 9 8 8 8 7 7 7 7 6 6 6 6 6 6 6 6 6 6 6 5 4 4 4 4 4 4 4 4 3 3 3 3 3 3 3 3 3 3 3 3 3
8 8 8 7 7 7 6 6 6 6 6 6 6 6 5 5 5 5 5 5 5 5 4 4 3 3 3 3 3 3 3 2 2 2 2 2 2 2 2 2 3 3 3
7 7 7 6 6 6 6 5 5 5 5 5 5 5 5 5 5 5 5 5 4 4 4 3 3 3 3 2 2 2 2 2 2 1 2 2 2 2 2 2 2 2 2
6 6 6 5 5 5 5 5 5 5 4 4 4 4 4 4 4 4 4 4 4 4 3 3 2 2 2 2 2 2 1 1 1 1 1 1 1 1 1 1 1 1 1
6 5 5 5 4 4 4 4 4 4 3 3 3 3 3 3 3 3 3 3 3 3 3 2 2 1 1 1 1 1 1 1 0 0 0 0 0 0 0 0 1 1 1
5 4 4 4 4 3 3 3 3 3 3 3 3 3 3 3 3 3 2 2 2 2 2 2 1 1 0 0 0 0 0 -0 -0 -0 -0 -0 -0 -0 -0 -0 -0 -0 -0
4 3 3 3 3 2 2 2 2 2 2 2 2 2 2 2 2 2 2 2 2 1 1 1 1 0 -0 -0 -0 -0 -1 -1 -1 -1 -1 -1 -1 -1 -1 -1 -1 -1 -1
3 2 2 2 2 2 2 2 2 2 1 1 1 1 1 1 1 1 1 1 1 1 1 0 -0 -0 -1 -1 -1 -1 -1 -1 -1 -2 -2 -2 -1 -2 -2 -1 -2 -2 -2
2 2 2 1 1 1 1 1 1 1 1 1 1 1 1 1 1 1 1 1 0 0 -0 -0 -1 -1 -1 -1 -1 -2 -2 -2 -2 -2 -2 -2 -2 -2 -2 -2 -2 -2 -3
1 1 1 1 1 1 1 1 1 1 1 1 1 0 0 0 0 0 0 0 0 -0 -1 -1 -1 -1 -1 -2 -2 -2 -2 -2 -3 -3 -3 -3 -3 -3 -3 -2 -3 -3 -3
Wind_Speed
3 4 3 5 5 6 7 6 6 5 4 4 5 5 5 7 8 8 8 12 11 11 10 10 10 9 8 8 8 7 6 5 4 4 3 3 2 1 1 1 1 2 3
3 2 2 3 3 2 3 3 5 3 2 3 3 5 6 8 8 8 7 12 14 14 13 13 12 11 11 10 10 10 9 8 7 7 6 5 5 4 3 3 2 1 1
4 3 2 2 3 4 4 4 4 2 2 2 3 6 7 7 7 8 9 9 12 15 16 15 14 13 13 12 12 12 12 11 11 10 9 8 7 7 6 5 4 3 2
6 4 2 2 4 4 3 2 2 2 3 4 4 4 4 5 7 9 9 8 9 10 13 16 15 14 13 13 13 13 13 13 13 13 12 11 10 10 9 8 7 6 5
6 4 3 3 4 2 2 2 3 3 4 4 4 4 4 3 5 7 8 9 9 8 8 9 13 14 14 13 13 14 13 12 13 14 14 14 13 12 12 11 10 9 8
4 4 3 3 3 1 2 2 3 4 3 3 4 4 5 6 5 5 6 7 6 5 5 4 4 7 11 12 11 11 12 11 11 12 14 15 15 15 14 13 12 11 10
2 2 1 2 1 2 2 3 3 3 3 2 2 4 5 8 8 7 4 3 2 1 1 1 1 1 2 4 6 8 9 10 11 11 12 13 15 16 16 16 15 14 13
2 1 1 0 1 1 2 3 2 2 2 2 2 2 4 4 4 4 3 2 1 2 3 3 4 3 4 4 5 5 6 8 10 11 11 11 12 14 16 17 17 17 16
2 2 1 1 1 0 2 3 3 2 3 3 3 3 3 3 3 3 1 1 2 2 2 4 5 6 7 8 9 10 10 9 10 11 11 11 11 12 13 15 17 18 17
4 4 3 3 2 1 2 2 2 2 3 3 3 3 4 3 2 3 3 2 1 2 2 3 7 10 11 12 12 13 12 11 10 10 11 11 10 10 10 10 11 13 14
5 5 5 4 2 2 2 2 3 3 2 3 3 2 3 3 4 4 4 3 1 2 4 5 7 9 11 11 12 12 12 12 11 10 10 9 8 7 7 7 7 7 10
3 4 4 4 3 3 3 3 3 3 3 3 3 2 2 2 2 3 4 3 1 1 4 5 6 9 11 12 12 12 13 12 11 11 10 9 8 6 6 5 4 5 6
3 4 4 3 3 3 4 3 2 2 2 2 2 2 1 1 1 1 2 2 1 1 2 5 6 9 10 11 11 12 12 13 12 12 11 11 10 8 7 5 4 2 3
4 4 4 4 4 5 4 3 2 2 2 2 2 2 2 3 3 2 1 0 1 1 1 3 4 8 9 10 11 11 11 13 12 13 12 12 11 9 8 7 5 3 1
4 4 4 3 4 4 3 3 2 3 3 3 3 3 3 3 3 3 2 1 1 2 1 3 3 4 7 8 10 10 10 11 12 13 13 13 12 11 9 10 10 9 7
4 3 3 3 3 3 3 3 2 3 3 3 2 3 3 3 3 3 3 2 1 0 1 2 2 3 6 6 9 10 9 11 12 12 12 13 14 14 13 12 11 11 10
4 4 3 3 3 3 3 3 3 3 3 4 3 4 4 4 3 3 3 3 3 2 1 2 2 2 3 4 6 8 9 10 10 12 12 12 13 13 13 13 12 11 10
4 4 3 3 3 4 3 3 4 4 4 4 4 5 4 4 4 3 3 3 3 2 1 2 2 2 3 3 3 4 6 7 8 10 10 10 11 11 10 10 10 10 9
4 4 4 4 4 4 4 4 5 5 5 5 5 5 4 4 4 3 4 3 2 2 2 3 2 1 1 1 2 2 3 5 6 8 8 8 8 8 8 8 8 8 7
4 4 4 4 4 4 4 4 5 5 5 6 6 6 6 6 5 4 4 4 3 3 3 3 2 1 1 1 2 2 3 3 3 6 7 6 7 6 6 6 7 7 6
4 4 4 4 4 3 3 4 4 5 5 5 5 6 6 7 8 6 5 5 4 3 3 3 2 1 1 2 2 2 2 2 2 4 4 4 4 4 4 5 5 6 6
4 4 4 4 4 4 5 5 5 4 5 5 4 3 4 5 6 8 8 8 7 4 3 2 2 2 2 2 2 3 2 3 2 4 4 4 3 2 2 3 4 5 5
4 4 4 4 5 5 6 5 6 5 5 4 3 2 2 3 4 3 5 7 7 8 7 3 3 2 2 2 2 2 2 1 1 3 3 3 3 2 3 3 4 4 5
4 4 4 5 5 5 6 6 6 5 4 3 2 2 2 2 3 3 3 3 3 4 5 5 4 3 4 3 2 1 0 2 2 2 2 1 3 3 4 6 2 3 4
4 4 4 5 5 5 6 6 5 3 3 3 2 1 2 2 3 3 2 1 1 1 4 5 4 3 3 3 4 3 3 3 2 2 3 2 3 3 3 3 3 4 5
5 5 4 5 5 5 7 7 5 2 3 3 2 2 2 3 2 1 1 1 1 1 1 1 0 0 0 1 3 3 2 1 1 1 2 3 3 3 4 3 4 6 7
Wind_Direction
179 168 186 170 198 194 178 198 232 246 223 242 244 244 258 260 248 236 205 200 208 218 230 243 249 249 249 244 241 239 236 237 238 234 232 230 220 212 179 119 81 75 70
170 140 210 177 213 202 212 220 243 251 251 253 266 275 267 268 267 259 233 213 217 223 229 237 246 249 250 251 246 240 236 235 235 234 233 232 230 228 227 223 215 178 98
169 167 237 196 210 215 221 234 271 293 287 280 272 266 260 260 267 270 261 233 220 225 231 235 242 247 250 252 252 248 240 234 232 231 231 231 230 229 228 228 225 221 217
179 178 203 233 237 225 213 209 248 260 257 253 256 263 262 260 258 263 266 257 232 222 226 232 238 244 249 253 256 257 250 240 233 230 230 230 230 229 229 228 227 225 225
181 178 202 231 240 229 218 222 228 235 253 260 263 270 273 273 266 266 263 260 251 232 215 224 234 241 247 255 261 265 266 257 242 234 231 230 229 229 230 230 229 227 225
179 183 205 237 244 224 233 240 246 251 251 264 282 284 278 271 263 257 256 260 259 238 218 218 223 240 250 255 265 274 279 281 266 249 240 235 232 229 228 228 228 227 227
178 186 209 252 262 237 245 255 260 263 262 265 288 289 274 256 248 244 232 230 249 233 137 139 143 340 326 284 275 284 295 296 293 277 258 246 239 233 229 227 225 225 226
94 108 81 306 303 287 289 283 277 264 260 234 222 273 299 304 281 244 207 174 143 73 84 89 72 45 33 32 29 3 335 324 311 302 285 266 253 244 236 232 230 228 227
92 79 47 4 338 291 282 289 289 261 261 264 229 222 250 271 331 336 16 117 107 85 71 75 69 56 49 50 45 30 13 353 331 316 303 288 273 262 250 242 237 232 229
79 59 38 19 7 351 305 298 301 280 264 263 270 249 240 242 258 300 323 343 40 63 62 59 62 56 55 57 45 30 20 5 345 327 315 303 290 278 266 253 245 236 229
84 64 40 24 16 4 342 332 324 308 283 268 265 274 273 269 238 234 265 281 324 30 57 59 63 56 54 55 40 27 21 9 355 340 328 318 305 299 297 267 251 244 237
100 80 51 31 29 22 3 354 339 322 311 299 294 283 268 261 259 246 249 252 247 69 63 55 55 54 53 49 34 25 23 14 4 355 350 349 345 341 333 312 271 253 250
98 77 55 36 32 23 10 5 353 347 351 339 326 314 323 321 325 295 262 266 258 161 102 67 50 51 51 44 28 27 25 19 16 12 9 10 10 3 353 331 313 273 264
89 75 58 46 38 28 19 13 10 10 17 9 3 5 19 22 19 13 356 315 265 239 124 103 59 44 45 44 29 33 24 24 26 27 27 24 20 20 20 22 28 32 70
83 70 61 55 45 37 26 22 38 35 47 41 30 35 48 39 33 25 22 27 204 225 193 99 81 37 36 46 34 33 27 30 34 38 38 36 36 40 41 47 51 56 65
82 77 67 62 53 42 34 39 54 56 71 57 50 62 60 48 42 30 21 17 23 169 155 94 87 59 40 39 35 34 31 37 38 40 42 47 50 50 52 54 57 58 59
84 78 73 70 62 52 47 57 65 68 81 70 61 69 62 52 51 33 26 31 29 28 134 106 88 62 50 35 23 30 35 41 41 43 46 49 50 51 53 53 53 54 55
90 87 80 79 72 62 57 67 72 67 72 73 69 71 63 64 54 37 39 42 35 23 79 121 96 68 58 39 23 22 29 38 37 40 45 49 48 47 47 48 48 48 46
96 91 87 88 81 73 66 69 77 73 69 66 64 65 59 66 63 48 46 42 32 31 50 104 103 77 68 37 31 19 27 26 33 37 38 40 40 41 41 43 43 41 37
108 102 94 89 88 85 80 79 86 85 79 70 62 59 53 54 54 47 49 34 31 47 74 93 102 94 70 25 52 26 15 9 14 29 25 25 28 33 37 39 38 31 24
120 118 118 112 103 97 95 94 98 104 98 89 75 71 66 66 60 59 58 39 36 51 70 87 91 82 52 45 34 15 16 350 14 26 9 354 3 16 29 39 33 20 11
129 127 129 129 120 109 112 114 110 103 104 101 96 88 85 68 70 69 68 62 59 64 65 66 71 86 69 52 34 32 29 26 347 352 12 330 352 7 20 55 23 8 356
142 134 131 125 119 125 131 125 118 109 106 110 114 106 101 90 70 61 69 68 61 60 59 85 85 82 78 51 57 35 30 22 280 298 11 329 343 352 355 6 1 355 348
145 143 140 132 127 138 140 135 129 114 116 119 110 107 116 112 91 71 70 64 57 55 58 64 83 72 74 60 58 50 301 331 304 338 41 346 335 335 330 328 329 355 345
153 153 148 145 145 153 158 156 147 135 143 145 128 95 95 120 114 91 82 84 76 79 89 87 85 77 62 46 40 49 33 33 359 355 20 27 341 333 320 315 332 341 336
160 158 160 165 167 173 179 180 181 172 169 167 171 177 159 145 143 102 65 95 117 110 93 92 26 343 64 61 61 85 106 90 3 327 10 30 360 356 332 314 330 333 327
Height
1568 1569 1569 1570 1570 1571 1571 1571 1572 1572 1573 1573 1573 1572 1572 1572 1572 1571 1570 1569 1569 1568 1567 1567 1566 1565 1565 1564 1563 1563 1562 1562 1561 1561 1560 1560 1559 1559 1559 1559 1558 1558 1558
1566 1567 1568 1569 1569 1570 1570 1571 1571 1571 1571 1571 1571 1570 1570 1570 1569 1569 1568 1567 1566 1566 1565 1564 1564 1563 1562 1562 1561 1561 1560 1560 1560 1559 1559 1558 1558 1558 1558 1557 1557 1557 1557
1565 1566 1566 1567 1568 1568 1568 1569 1569 1569 1569 1568 1568 1568 1567 1567 1567 1566 1566 1565 1563 1563 1562 1562 1561 1560 1560 1559 1559 1558 1558 1557 1557 1557 1557 1557 1556 1556 1556 1556 1556 1556 1556
1563 1563 1564 1565 1566 1566 1566 1566 1566 1566 1566 1566 1565 1565 1564 1564 1563 1563 1562 1562 1561 1559 1559 1558 1558 1557 1557 1556 1556 1555 1555 1554 1554 1554 1554 1554 1554 1554 1554 1554 1554 1554 1554
1560 1561 1562 1563 1563 1564 1564 1564 1564 1564 1563 1563 1562 1561 1561 1560 1560 1559 1558 1558 1557 1556 1555 1555 1554 1553 1553 1552 1552 1552 1551 1551 1551 1551 1551 1551 1551 1551 1551 1551 1552 1552 1552
1558 1559 1559 1560 1561 1561 1561 1561 1561 1560 1560 1559 1558 1557 1557 1556 1555 1554 1554 1553 1553 1553 1552 1551 1550 1549 1549 1548 1548 1548 1547 1547 1547 1547 1547 1547 1547 1548 1548 1548 1549 1549 1549
1555 1556 1556 1557 1557 1557 1557 1557 1557 1556 1556 1556 1554 1553 1551 1551 1550 1549 1549 1549 1549 1549 1548 1548 1547 1546 1545 1544 1544 1543 1543 1543 1543 1543 1542 1542 1543 1543 1544 1544 1545 1545 1546
1552 1552 1552 1553 1553 1553 1553 1553 1553 1552 1552 1552 1551 1549 1547 1547 1545 1545 1546 1546 1546 1545 1545 1544 1544 1543 1542 1540 1540 1539 1539 1538 1538 1538 1538 1538 1538 1538 1539 1539 1540 1541 1542
1548 1548 1548 1549 1549 1549 1549 1548 1548 1548 1547 1547 1547 1547 1546 1544 1543 1543 1543 1543 1543 1542 1542 1541 1540 1539 1538 1537 1536 1535 1534 1534 1534 1533 1533 1533 1533 1533 1533 1534 1535 1536 1537
1543 1544 1544 1544 1544 1544 1544 1543 1543 1543 1542 1542 1542 1542 1542 1542 1541 1539 1540 1540 1539 1539 1538 1537 1536 1535 1534 1533 1532 1531 1530 1530 1529 1529 1529 1529 1529 1529 1529 1529 1530 1530 1532
1539 1539 1539 1539 1539 1539 1538 1538 1538 1537 1537 1537 1537 1537 1537 1537 1537 1536 1535 1536 1536 1535 1534 1533 1532 1531 1530 1529 1529 1528 1527 1526 1525 1525 1524 1524 1524 1523 1524 1524 1525 1525 1527
1534 1535 1535 1534 1534 1533 1533 1533 1532 1532 1532 1531 1531 1531 1532 1532 1531 1532 1531 1531 1531 1531 1530 1529 1529 1528 1527 1526 1525 1524 1523 1522 1521 1520 1520 1519 1519 1518 1519 1519 1520 1521 1522
1530 1530 1530 1530 1529 1529 1528 1528 1527 1527 1526 1526 1526 1526 1526 1526 1527 1527 1527 1527 1527 1527 1526 1526 1525 1524 1523 1522 1521 1520 1519 1518 1517 1516 1516 1515 1514 1514 1514 1515 1515 1516 1517
1525 1525 1525 1525 1525 1524 1524 1523 1523 1522 1522 1522 1522 1521 1521 1521 1522 1522 1522 1523 1522 1523 1522 1522 1521 1521 1520 1519 1518 1517 1515 1514 1513 1513 1512 1512 1511 1511 1511 1511 1511 1512 1513
1521 1521 1521 1520 1520 1520 1519 1519 1518 1518 1517 1517 1517 1517 1517 1517 1517 1517 1518 1518 1519 1519 1519 1518 1518 1518 1517 1516 1515 1514 1512 1511 1510 1510 1509 1509 1508 1508 1508 1508 1508 1509 1509
1517 1517 1516 1516 1516 1515 1515 1514 1514 1513 1513 1513 1513 1512 1512 1512 1513 1513 1513 1513 1514 1515 1515 1515 1515 1514 1514 1513 1512 1511 1510 1509 1508 1508 1507 1506 1506 1506 1506 1506 1506 1507 1507
1513 1512 1512 1512 1512 1511 1511 1510 1510 1510 1509 1509 1509 1509 1509 1509 1509 1509 1509 1509 1510 1511 1511 1512 1512 1511 1510 1510 1509 1509 1508 1507 1506 1506 1505 1505 1505 1504 1504 1504 1504 1505 1505
1509 1509 1508 1508 1508 1508 1507 1507 1507 1506 1506 1506 1506 1506 1506 1506 1506 1506 1506 1506 1507 1507 1508 1508 1508 1508 1507 1507 1507 1506 1505 1505 1504 1504 1503 1503 1503 1502 1502 1502 1502 1503 1503
1505 1505 1505 1505 1504 1504 1504 1504 1504 1503 1503 1503 1503 1503 1503 1503 1503 1503 1503 1503 1504 1504 1504 1505 1505 1505 1505 1504 1504 1504 1503 1503 1502 1502 1502 1501 1501 1501 1500 1500 1500 1500 1500
1501 1501 1502 1501 1501 1501 1501 1501 1501 1501 1501 1501 1500 1500 1501 1501 1501 1501 1501 1501 1501 1501 1501 1502 1502 1502 1502 1501 1501 1501 1501 1501 1500 1500 1500 1499 1499 1499 1498 1498 1498 1498 1498
1498 1498 1498 1498 1498 1498 1498 1498 1498 1498 1498 1498 1498 1498 1498 1498 1498 1499 1499 1498 1499 1499 1499 1499 1499 1499 1499 1499 1499 1499 1499 1499 1498 1498 1498 1497 1497 1496 1496 1496 1495 1495 1495
1494 1495 1495 1495 1495 1495 1495 1495 1495 1495 1496 1496 1496 1496 1496 1497 1497 1497 1497 1496 1497 1497 1497 1497 1497 1497 1497 1497 1497 1497 1497 1496 1496 1497 1496 1495 1495 1494 1493 1493 1493 1492 1491
1491 1491 1492 1492 1492 1493 1493 1493 1493 1493 1494 1494 1494 1494 1495 1495 1495 1495 1495 1495 1495 1495 1495 1495 1495 1495 1495 1495 1495 1495 1495 1494 1494 1494 1493 1493 1493 1492 1491 1490 1490 1489 1489
1488 1489 1489 1490 1490 1490 1491 1491 1491 1491 1492 1492 1492 1493 1493 1493 1493 1493 1493 1493 1493 1493 1493 1493 1494 1494 1494 1493 1493 1493 1493 1493 1492 1492 1491 1491 1490 1490 1489 1488 1487 1487 1486
1485 1486 1487 1487 1488 1488 1489 1489 1489 1489 1490 1490 1490 1491 1491 1491 1491 1491 1491 1491 1492 1492 1492 1492 1492 1492 1492 1492 1492 1491 1491 1491 1490 1490 1489 1488 1487 1487 1486 1485 1485 1484 1484
1482 1483 1484 1485 1485 1486 1487 1487 1487 1487 1488 1488 1489 1489 1489 1490 1490 1490 1490 1490 1490 1490 1490 1490 1491 1490 1490 1490 1490 1490 1489 1489 1488 1487 1487 1486 1485 1484 1483 1483 1482 1482 1481